• Processing (Info)

  • MPEC 2005-T06 : 2005 SA71

    The following Minor Planet Electronic Circular may be linked-to from your own Web pages, but must not otherwise be redistributed electronically.

    A form allowing access to any MPEC is at the bottom of this page.


    Read MPEC 2005-T05 Read MPEC 2005-T07


    M.P.E.C. 2005-T06                                Issued 2005 Oct. 1, 16:21 UT
    
         The Minor Planet Electronic Circulars contain information on unusual
             minor planets and routine data on comets.  They are published
       on behalf of Commission 20 of the International Astronomical Union by the
              Minor Planet Center, Smithsonian Astrophysical Observatory,
                              Cambridge, MA 02138, U.S.A.
    
                      Supported in part by the Brinson Foundation
                 Prepared using the Tamkin Foundation Computer Network
    
                                  MPC@CFA.HARVARD.EDU
              URL http://cfa-www.harvard.edu/iau/mpc.html  ISSN 1523-6714
    
                                       2005 SA71
    
    Observations:
         K05S71A* C2005 09 30.39572 05 23 48.63 -02 42 28.7          19.4   ET006704
         K05S71A  C2005 09 30.41677 05 23 47.73 -02 41 31.1          19.7   ET006704
         K05S71A  C2005 09 30.42730 05 23 47.34 -02 41 00.7          19.5   ET006704
         K05S71A  C2005 09 30.43781 05 23 46.87 -02 40 30.8          19.8   ET006704
         K05S71A  C2005 10 01.08282 05 23 25.05 -02 10 52.7          19.2 R ET006118
         K05S71A  C2005 10 01.08630 05 23 24.89 -02 10 44.4          19.2 R ET006118
         K05S71A  C2005 10 01.08861 05 23 24.81 -02 10 37.4          19.0 R ET006118
         K05S71A  C2005 10 01.09093 05 23 24.69 -02 10 30.7          18.9 R ET006118
         K05S71A  C2005 10 01.20000 05 23 20.45 -02 05 28.8                 ET006J95
         K05S71A  C2005 10 01.20244 05 23 20.34 -02 05 22.3          18.5 R ET006J95
         K05S71A  C2005 10 01.31384 05 23 16.40 -01 59 44.9          18.0 R ET006I77
         K05S71A  C2005 10 01.31913 05 23 16.17 -01 59 30.2          18.5 R ET006I77
         K05S71A  C2005 10 01.32441 05 23 15.85 -01 59 14.8          18.7 R ET006I77
         K05S71A  C2005 10 01.42487 05 23 12.98 -01 54 56.9          19.2 R ET006651
         K05S71A  C2005 10 01.42608 05 23 12.94 -01 54 53.6          19.2 R ET006651
         K05S71A  C2005 10 01.42728 05 23 12.86 -01 54 50.4          19.2 R ET006651
         K05S71A  C2005 10 01.50590 05 23 09.49 -01 51 12.3          19.0 R ET006673
         K05S71A  C2005 10 01.51111 05 23 09.26 -01 50 58.2                 ET006673
         K05S71A  C2005 10 01.51609 05 23 09.00 -01 50 43.5                 ET006673
         K05S71A  C2005 10 01.52037 05 23 08.82 -01 50 31.7                 ET006673
    
    Observer details:
    118 Modra.  Observers S. Gajdos, J. Vilagi.  0.6-m f/5.5 reflector + CCD.
    651 Grasslands Observatory, Tucson.  Observer J. E. McGaha.  0.62-m f/5.1
        Newtonian reflector + CCD.
    673 Table Mountain Observatory, Wrightwood.  Observer J. Young.  0.6-m f/16
        Cassegrain + CCD.
    704 Lincoln Laboratory ETS, New Mexico.  Observers M. Bezpalko, L. Manguso,
        D. Torres, R. Kracke, A. Milner, H. Love.  Measurers J. Stuart, R. Sayer,
        J. Evans, J. Kommers.  1.0-m f/2.15 reflector + CCD.
    I77 CEAMIG-REA Observatory, Belo Horizonte.  Observers C. Jacques, E. Pimentel.
        Measurer C. Jacques.  0.30-m f/3.0 Schmidt-Cassegrain + CCD.
    J95 Great Shefford.  Observer P. Birtwhistle.  0.40-m f/6.0 Schmidt-Cassegrain
        + CCD.
    
    Orbital elements:
    2005 SA71
    Epoch 2005 Sept. 27.0 TT = JDT 2453640.5                MPC
    M  23.35791              (2000.0)            P               Q
    n   0.48130923     Peri.  283.55151     +0.80655415     +0.54064871
    a   1.6125750      Node    44.39054     -0.31641910     +0.73646698
    e   0.3661190      Incl.   19.98628     -0.49934894     +0.40658992
    P   2.05           H   19.1           G   0.15
    From 20 observations 2005 Sept. 30-Oct. 1.
    
    Ephemeris:
    2005 SA71                a,e,i = 1.61, 0.37, 20                  q = 1.0222
    Date    TT    R. A. (2000) Decl.     Delta      r     Elong.  Phase     V
    2005 09 27    05 25.25   -05 15.3    0.357    1.132   102.1    60.0    19.3
    2005 10 07    05 18.66   +02 32.1    0.341    1.176   113.1    51.4    19.0
    2005 10 17    05 04.05   +11 07.1    0.331    1.223   126.8    40.7    18.7
    2005 10 27    04 40.26   +19 55.8    0.333    1.274   142.2    28.5    18.5
    2005 11 06    04 08.64   +27 43.8    0.355    1.326   157.2    16.8    18.4
    2005 11 16    03 34.87   +33 21.0    0.400    1.379   165.2    10.6    18.5
    2005 11 26    03 06.05   +36 36.9    0.466    1.432   159.4    14.0    19.0
    2005 12 06    02 46.46   +38 11.2    0.550    1.485   149.3    19.8    19.7
    2005 12 16    02 36.68   +38 51.5    0.650    1.537   139.4    24.6    20.2
    2005 12 26    02 35.10   +39 09.0    0.762    1.588   130.6    28.1    20.8
    2006 01 05    02 39.85   +39 19.7    0.883    1.638   122.5    30.4    21.2
    2006 01 15    02 49.37   +39 30.9    1.013    1.686   115.2    31.9    21.6
    2006 01 25    03 02.42   +39 44.2    1.147    1.732   108.4    32.6    22.0
    
    Brian G. Marsden             (C) Copyright 2005 MPC           M.P.E.C. 2005-T06
    

    Read MPEC 2005-T05 Read MPEC 2005-T07


    MPEC number:

    Enter an MPEC number in one of the following forms:

    • 1997-B01 (the full form)
    • J97B01 (the packed version of the full form)
    • B01 (the abbreviated form)